Regional Weather Roundup
Issued by NWS

Home | Current Version | Previous Version | Text Only | Print | Product List | Glossary On
Versions: 1 2 3 4 5 6 7 8 9 10 11 12 13 14 15 16 17 18 19 20 21 22 23 24 25 26 27 28 29 30 31 32 33 34 35 36 37 38 39 40 41 42 43 44 45 46 47 48 49 50
000
ASUS43 KDTX 171410
RWRMI
MICHIGAN HOURLY REGIONAL WEATHER ROUNDUP
NATIONAL WEATHER SERVICE DETROIT/PONTIAC MI
900 AM EST SUN DEC 17 2017

NOTE: "FAIR" INDICATES FEW OR NO CLOUDS BELOW 12,000 FEET WITH NO
SIGNIFICANT WEATHER AND/OR OBSTRUCTION TO VISIBILITY.

MIZ047>049-052>055-059>063-066>070-074>076-081>083-171500-
SOUTHEAST LOWER MICHIGAN

CITY           SKY/WX    TMP DP  RH WIND       PRES   REMARKS
ADRIAN         CLOUDY    27  24  89 E7        30.17S WCI  19
ALMA           CLOUDY    25  22  91 E10       30.20S WCI  14
ANN ARBOR      CLOUDY    26  22  84 NE7       30.18R WCI  18
BAD AXE        CLOUDY    24  19  84 E8        30.24F WCI  14
CARO           CLOUDY    25  21  85 E7        30.21F WCI  17
DETROIT CITY   CLOUDY    28  24  85 E8        30.20S WCI  20
DETROIT        CLOUDY    31  26  82 NE5       30.20R WCI  26
FLINT          CLOUDY    25  18  74 E10       30.20S WCI  15
GROSSE ILE     CLOUDY    28  25  87 NE9       30.19R WCI  19
HILLSDALE      FOG       27  27 100 E7        30.13R VSB 1/4 WCI  19
HOWELL         CLOUDY    26  24  92 E7        30.17S WCI  19

CITY           SKY/WX    TMP DP  RH WIND       PRES   REMARKS
JACKSON        CLOUDY    27  23  85 E8        30.15R FOG     WCI  19
LAMBERTVILLE   CLOUDY    28  26  89 E6        30.17S WCI  22
LANSING        CLOUDY    24  21  88 E9        30.17F WCI  14
LAPEER         CLOUDY    26  19  77 E6        30.21R WCI  19
MASON          CLOUDY    26  21  81 E5        30.15F WCI  20
MONROE         CLOUDY    29  26  86 NE6       30.17S WCI  23
MT. CLEMENS    CLOUDY    26  22  88 NE14      30.19F WCI  14
PONTIAC        CLOUDY    24  21  88 E7        30.17S WCI  16
PORT HOPE        N/A     26  20  77 E10       30.24F WCI  16
PORT HURON     CLOUDY    23  16  74 NE5       30.24R WCI  17
TRI CITIES     CLOUDY    25  22  88 E10       30.21F WCI  15
MIDLAND        CLOUDY    26  21  83 E8        30.21F WCI  17
TROY           CLOUDY    26  22  82 NE7       30.21F WCI  19
SAGINAW HB     CLOUDY    27  23  86 E9        30.21F WCI  17
$$
MIZ043>046-050>051-056>058-064>065-071>073-077>080-171500-
SOUTHWEST LOWER MICHIGAN

CITY           SKY/WX    TMP DP  RH WIND       PRES   REMARKS
BATTLE CREEK   CLOUDY    27  26  96 E9        30.13S FOG     WCI  18
BENTON HARBOR  MOCLDY    27  23  85 E8        30.11R FOG     WCI  19
BIG RAPIDS     CLOUDY    22  19  88 E10       30.16S WCI  11
COLDWATER      CLOUDY    27  27 100 E7        30.13R FOG     WCI  20
HOLLAND        CLOUDY    23  21  92 E10       30.13F FOG     WCI  12
GRAND RAPIDS   FOG       23  22  96 E12       30.15R VSB 3/4 WCI  12
IONIA          CLOUDY    24  22  92 E12       30.15F WCI  12
KALAMAZOO      CLOUDY    28  26  92 E8        30.13R FOG     WCI  20
LUDINGTON      CLOUDY    23  19  86 E8        30.15F WCI  14
MARSHALL       CLOUDY    26  26  98 E6        30.14R FOG     WCI  20
MOUNT PLEASANT CLOUDY    24  19  83 E6        30.19F WCI  16
MUSKEGON       CLOUDY    25  20  81 E9        30.15R WCI  15
SOUTH HAVEN    CLOUDY    27  25  91 E9        30.11R FOG     WCI  18
$$
MIZ016>042-171500-
NORTHERN LOWER MICHIGAN

CITY           SKY/WX    TMP DP  RH WIND       PRES   REMARKS
ALPENA         CLOUDY    20  17  88 CALM      30.27R
BEAVER ISLAND  CLOUDY    22  18  84 E7        30.22F WCI  13
BELLAIRE       CLOUDY    20  19  96 CALM      30.24S
CADILLAC       CLOUDY    18  17  96 E10       30.13F WCI   7
CHARLEVOIX     CLOUDY    17  15  93 SE6       30.26S WCI   9
FRANKFORT      CLOUDY    22  19  89 E6        30.18F WCI  15
GAYLORD        CLOUDY    15  12  88 CALM      30.19S
GRAYLING       CLOUDY    16  13  86 E5        30.20F WCI   9
HARBOR SPRINGS CLOUDY    14  10  85 E7        30.24S WCI   4
HOUGHTON LAKE  CLOUDY    18  16  92 E6        30.19F WCI  10
MANISTEE       CLOUDY    23  20  88 E9        30.17F WCI  13
OSCODA         CLOUDY    21  17  83 CALM      30.25F
PELLSTON       CLOUDY     2   0  91 CALM      30.26F
ROGERS CITY    CLOUDY    19  16  88 CALM      30.27F
TRAVERSE CITY  CLOUDY    20  16  84 E3        30.22S
$$
MIZ007>008-015-171500-
EASTERN UPPER MICHIGAN

CITY           SKY/WX    TMP DP  RH WIND       PRES   REMARKS
KINROSS        FLURRIES   4   1  88 E6        30.26F WCI  -7
MACKINAC ISLAN CLOUDY    19  16  87 CALM      30.25F
NEWBERRY       CLOUDY     8   7  98 SE5       30.22S WCI  -1
S. S. MARIE    CLOUDY     3   0  87 E5        30.27F FOG     WCI  -6
MUNISING         N/A     13  11  92 S9        30.20S WCI   1
$$
MIZ004>006-011>014-085-171500-
CENTRAL UPPER MICHIGAN

CITY           SKY/WX    TMP DP  RH WIND       PRES   REMARKS
MANISTIQUE     CLOUDY    19  14  81 E6        30.20F WCI  11
ESCANABA       CLOUDY    19  17  92 NE6       30.19F WCI  11
MENOMINEE      CLOUDY    29  24  82 SE9       30.18S WCI  20
SAWYER-GWINN   CLOUDY    14  12  92 S7        30.15S WCI   4
$$
MIZ001>003-009>011-084-171500-
WESTERN UPPER MICHIGAN

CITY           SKY/WX    TMP DP  RH WIND       PRES   REMARKS
IRON MOUNTAIN  CLOUDY    18  14  84 SE3       30.13F
HOUGHTON       CLOUDY    21  16  81 S8        30.11S WCI  11
COPPER HARBOR    N/A     25  20  81 VRB3      30.14S
IRONWOOD       CLOUDY    22  20  92 S3        30.10F
$$

ABBREVIATIONS USED IN REMARKS
   TC - TEMPERATURE IN CELSIUS
  WCI - WIND CHILL INDEX
   HX - HEAT INDEX
  VSB - VISIBILITY





USA.gov is the U.S. government's official web portal to all federal, state and local government web resources and services.